Theta_e
316 316 316 316 316 316 316 315 315 315 315 316 316 316 316 317 317 315 313 320 319 322 318 309 313 313 313 310 313 313 304 302 303 305 308 314 313 316 317 313 316 319 319 322 325
315 315 315 314 314 314 314 315 315 315 315 315 315 315 315 316 312 312 323 326 323 319 307 305 304 310 307 308 309 307 303 302 308 309 309 312 313 315 314 313 313 317 321 323 323
314 314 315 314 313 313 313 314 315 315 315 315 315 314 314 315 312 313 326 325 323 317 316 314 310 307 305 308 307 307 303 307 308 310 311 310 311 315 313 311 314 313 318 321 321
312 312 312 312 313 313 313 313 313 314 315 314 314 314 314 314 304 313 327 324 322 317 317 310 307 303 302 303 308 303 307 308 309 310 310 308 311 310 313 315 319 319 319 319 319
312 313 312 312 312 312 313 313 313 313 313 313 313 314 314 311 310 318 328 322 315 317 313 308 305 304 300 304 306 304 306 308 310 310 310 311 308 309 310 316 320 320 319 318 318
311 312 311 312 312 312 312 312 313 313 313 313 313 314 311 303 320 318 317 317 319 313 313 311 308 309 304 303 303 305 305 306 308 308 308 307 307 308 311 315 316 318 319 317 318
312 311 311 311 311 312 312 312 312 313 314 314 314 314 308 307 314 320 317 315 316 313 310 312 311 307 307 303 306 305 301 303 304 306 305 307 303 304 310 313 313 314 317 317 318
312 311 311 311 312 312 312 313 313 314 314 314 315 314 306 316 316 315 318 315 316 315 313 313 312 308 305 307 304 301 301 296 302 304 305 304 298 305 310 309 309 310 312 314 317
312 312 311 311 311 312 313 313 314 317 315 315 312 312 307 315 308 312 314 311 312 313 313 312 309 304 304 300 297 298 293 296 298 304 303 303 299 305 308 308 309 310 311 312 314
311 311 311 312 312 312 313 312 316 314 314 315 314 309 312 308 311 310 314 313 309 308 306 306 304 300 300 297 290 294 295 297 296 302 303 301 300 304 307 307 308 309 310 311 312
310 311 312 312 312 312 312 317 313 312 316 309 311 308 310 313 314 311 312 310 308 305 299 304 298 296 299 300 300 299 297 296 299 303 301 300 300 302 306 307 306 308 310 311 313
310 310 311 312 313 313 311 313 311 312 304 311 312 310 311 312 305 308 312 304 303 298 302 299 295 301 302 301 298 298 296 296 299 302 301 300 299 302 304 305 307 308 309 310 312
310 310 311 312 312 311 315 313 317 316 305 307 311 307 308 309 304 306 309 306 301 299 299 297 299 303 301 298 297 297 295 295 295 299 301 299 296 299 303 305 307 309 311 312 312
309 310 310 311 309 317 314 318 317 318 299 304 304 306 307 308 303 310 311 306 303 298 299 299 303 300 299 297 298 293 299 298 296 294 290 299 289 298 302 303 305 307 308 309 310
309 309 310 309 314 313 315 317 317 315 291 304 304 312 308 304 305 306 311 307 299 299 300 297 299 298 297 297 299 295 300 297 297 294 294 294 290 294 300 299 302 305 306 309 310
308 308 309 314 316 319 319 318 314 300 291 300 304 301 301 303 303 306 305 308 306 300 301 299 304 301 300 301 300 301 297 297 296 293 286 292 291 292 296 299 302 306 306 307 309
308 307 307 315 312 319 319 313 299 293 304 299 298 301 300 299 301 303 301 300 297 293 294 298 299 303 303 297 300 298 294 286 285 285 284 294 290 295 300 303 304 304 305 308 309
306 305 309 315 319 320 316 304 292 298 300 304 301 300 297 300 300 301 300 297 301 299 294 291 289 299 301 298 296 296 294 287 280 282 285 294 288 294 302 304 304 306 307 307 307
304 318 315 320 321 318 307 296 296 300 302 299 299 295 296 300 300 299 298 297 300 301 294 291 291 301 300 301 300 295 290 297 290 292 287 290 293 299 303 303 303 303 304 305 307
305 315 316 323 321 314 302 296 300 304 303 301 294 296 293 296 296 297 297 300 299 301 302 297 290 297 298 301 300 296 298 288 290 281 280 287 289 290 297 299 302 302 302 305 309
308 310 318 320 318 306 297 300 303 305 302 296 295 294 295 294 295 295 296 299 301 300 301 299 295 293 296 293 293 293 292 294 294 292 283 282 287 298 298 301 301 302 304 306 308
307 304 318 315 301 305 301 302 300 300 302 298 298 296 295 296 295 295 295 297 301 301 295 298 294 289 290 297 299 298 294 294 285 286 290 288 287 301 301 302 304 303 304 306 307
300 306 317 313 298 299 301 300 301 299 298 297 297 299 299 295 292 295 296 300 301 299 297 298 292 285 287 294 296 290 292 292 291 292 284 283 288 301 301 302 303 303 305 306 308
303 299 307 308 306 300 298 297 297 302 299 298 297 299 297 295 297 294 295 298 300 300 301 298 292 288 284 287 292 288 290 292 289 287 288 289 291 295 299 299 301 303 305 306 307
306 302 304 297 299 300 300 299 296 295 299 300 296 296 294 291 292 292 295 296 299 302 299 297 289 291 291 292 292 291 291 291 291 292 288 290 291 295 299 299 302 304 304 303 304
301 298 301 299 302 300 298 297 296 296 296 293 292 294 295 291 293 291 294 294 293 297 296 299 290 292 289 292 292 290 292 293 292 292 292 292 292 299 302 302 301 303 304 303 306
305 304 300 298 299 296 297 297 296 296 296 296 295 293 293 294 297 298 298 298 297 295 294 294 291 289 285 291 290 286 292 293 294 295 293 289 294 300 299 300 301 303 305 305 307
Wind_Speed
18 17 16 16 15 14 15 15 15 14 14 14 14 14 15 16 18 15 12 2 3 4 5 12 15 14 17 18 20 20 16 17 25 25 22 20 18 15 12 10 11 8 15 5 7
18 18 17 17 16 16 16 15 15 14 15 14 14 15 15 15 16 18 2 5 6 3 8 11 13 14 14 19 18 20 17 25 23 23 21 23 22 17 17 12 11 13 20 13 3
19 18 17 17 17 16 16 15 16 15 14 14 14 14 14 15 12 5 8 7 4 3 10 14 12 15 18 17 20 22 24 22 24 22 23 26 26 21 17 18 16 16 16 16 5
19 19 19 18 17 17 16 16 16 15 14 14 13 14 15 10 4 10 12 8 5 8 13 10 11 14 18 19 20 25 26 26 23 24 25 24 23 25 25 16 19 21 16 15 14
20 19 18 18 17 16 15 15 15 15 14 14 12 12 11 10 10 12 13 11 10 12 15 9 10 13 17 18 21 24 25 24 24 25 23 23 26 25 25 23 11 16 15 13 10
20 19 18 18 18 17 16 15 13 14 14 13 12 10 8 13 16 15 11 11 14 10 11 9 9 7 13 17 19 20 21 25 22 24 21 23 21 24 25 22 19 17 16 11 12
18 19 20 17 18 17 16 15 14 13 14 13 10 9 11 17 5 15 10 10 10 6 9 10 7 9 9 12 18 18 21 19 22 19 21 22 28 26 25 23 21 22 17 16 16
17 18 19 19 17 17 16 14 15 15 14 11 8 10 10 9 10 10 11 11 9 7 9 11 8 13 14 15 18 17 17 19 21 23 23 23 24 24 23 21 23 23 19 19 15
18 17 18 18 18 16 16 16 17 9 10 9 8 10 13 3 9 12 11 12 12 9 9 8 10 13 14 15 15 15 17 21 24 24 21 24 27 22 21 20 20 22 17 23 11
20 17 17 17 17 17 16 15 6 5 7 10 12 10 10 12 10 14 14 13 10 8 12 11 11 13 13 13 15 18 19 21 22 19 20 26 23 17 16 19 20 14 13 12 9
21 18 17 17 16 13 14 6 7 8 12 15 6 12 10 3 1 7 9 10 10 12 14 14 14 14 17 17 21 21 21 25 21 20 17 14 17 18 19 22 19 12 12 12 12
24 21 17 16 16 11 7 9 8 8 12 16 22 16 13 2 10 12 13 13 13 14 15 16 17 16 17 18 20 21 19 20 20 21 19 19 17 14 18 21 19 17 18 16 14
23 22 20 14 12 6 12 6 9 11 9 16 15 12 11 12 13 13 15 14 15 17 17 17 19 17 18 14 18 18 18 19 22 21 21 21 20 17 20 21 21 19 14 14 14
24 23 21 19 4 10 7 6 10 7 7 11 9 9 7 10 15 16 12 15 18 19 19 17 18 18 18 17 13 20 20 21 20 18 16 17 15 19 22 25 25 21 16 13 17
24 24 22 12 12 10 9 8 9 5 7 8 11 7 6 11 3 11 10 14 16 18 19 19 19 18 19 16 16 21 19 15 20 17 16 20 15 17 20 20 13 13 12 11 7
23 22 22 8 8 14 8 7 5 7 6 7 6 7 10 13 15 13 10 13 12 18 20 23 23 24 26 20 16 17 14 14 17 14 15 22 18 18 18 21 19 18 15 12 11
25 22 12 10 11 9 8 7 7 7 1 1 0 5 9 13 15 13 13 17 17 20 19 22 20 21 23 22 20 18 15 13 14 13 16 23 11 19 20 20 13 18 14 13 9
30 22 8 9 13 8 8 9 8 11 11 13 8 13 17 18 17 18 15 17 19 19 15 15 17 17 13 18 18 17 18 14 18 13 15 9 7 11 24 10 1 12 17 14 12
31 4 5 11 8 5 8 10 14 11 13 11 15 18 16 14 12 9 15 16 19 14 16 16 20 7 9 15 6 10 16 19 15 17 15 16 12 15 21 18 12 10 4 4 4
9 9 7 9 4 5 9 15 21 18 6 10 14 12 16 17 19 19 19 15 22 8 11 17 21 14 13 4 4 8 9 9 6 3 14 13 16 11 3 12 19 12 9 9 10
5 6 7 2 3 7 9 15 17 14 11 6 14 17 18 19 18 19 19 19 14 9 12 10 14 14 11 10 22 10 16 22 11 9 7 10 12 5 4 4 18 10 10 10 11
6 8 8 5 6 8 11 14 7 13 12 12 14 16 17 17 17 19 19 19 6 9 8 4 7 12 17 18 21 19 17 3 4 9 8 9 12 13 3 4 6 6 4 4 6
8 11 5 2 7 9 16 16 20 16 11 8 12 15 16 17 17 16 18 17 15 7 7 7 5 11 12 13 13 7 18 10 13 10 13 13 15 9 4 18 11 10 15 11 14
7 7 2 5 11 8 12 15 15 16 13 9 11 12 15 16 14 16 18 17 4 9 9 1 9 14 14 19 16 7 12 13 10 9 9 15 23 16 9 4 12 17 14 17 19
6 9 5 8 12 19 16 16 17 15 10 8 9 15 16 15 17 17 15 14 13 8 5 6 13 15 18 21 22 23 23 18 21 21 17 18 21 19 17 12 18 16 14 11 15
8 7 9 14 15 15 10 17 17 14 12 14 16 18 15 16 16 17 15 14 15 16 14 8 15 15 20 23 22 25 23 21 23 22 24 25 25 20 19 20 16 19 22 16 24
10 11 8 9 14 12 12 19 16 15 12 9 16 12 14 16 16 14 14 14 15 14 13 13 9 10 15 16 18 14 21 17 18 18 14 17 23 21 23 16 11 11 13 10 9
Wind_Direction
339 338 335 333 331 328 326 325 322 320 316 311 309 308 309 313 303 259 257 229 69 78 320 269 268 231 235 241 239 237 247 251 250 252 263 270 260 175 184 211 273 227 269 282 55
336 334 333 332 329 326 323 321 317 316 313 310 310 310 313 318 296 274 148 134 107 81 241 231 243 234 232 231 233 231 241 241 253 266 266 263 260 251 171 201 237 228 250 289 231
332 331 328 329 326 324 320 317 316 314 309 308 308 309 313 313 279 169 149 133 112 222 255 277 264 251 241 237 230 233 241 246 249 253 261 271 276 270 184 201 203 237 249 246 329
334 330 329 325 321 319 317 314 311 307 305 303 305 308 308 284 320 126 147 134 186 256 260 254 244 249 247 243 242 245 241 249 253 265 273 277 278 270 273 247 177 199 224 262 303
327 325 323 321 319 316 312 310 307 304 301 298 300 310 300 235 256 136 141 154 197 223 240 230 242 245 248 248 256 245 252 256 253 251 264 275 275 281 279 271 243 175 199 223 260
329 326 324 320 317 313 309 305 299 295 293 291 294 301 250 262 120 149 180 172 239 223 253 276 267 308 295 268 259 266 256 259 256 262 268 262 260 272 266 272 267 262 215 194 243
328 325 322 319 315 313 308 303 296 286 280 278 284 281 268 247 311 157 209 218 237 258 280 236 286 291 276 268 252 270 274 275 264 255 261 257 258 243 260 266 266 267 259 204 214
332 327 321 317 314 310 306 303 296 279 260 255 264 263 264 241 236 227 210 228 245 253 259 301 296 277 279 285 286 269 263 260 251 254 246 248 259 245 245 251 255 256 258 264 217
335 329 324 318 312 306 305 305 298 274 236 229 236 220 264 133 229 247 227 241 235 212 249 256 281 271 270 257 257 242 255 252 253 243 244 232 244 248 254 260 248 239 258 239 236
336 332 325 317 310 308 305 297 352 165 211 200 261 263 255 258 179 223 218 238 252 252 244 239 247 251 245 244 255 262 248 237 244 251 252 238 245 240 254 253 253 234 253 269 252
337 334 328 320 313 313 312 211 205 201 221 255 297 241 303 245 266 229 229 212 250 248 261 253 242 250 247 254 256 264 269 284 292 296 306 243 235 250 251 255 258 224 227 242 238
337 333 331 325 315 314 285 265 32 307 297 266 239 254 266 234 273 213 229 220 229 245 256 240 249 259 263 262 277 279 281 282 288 279 280 277 263 258 263 269 267 220 218 221 233
336 333 329 326 321 269 235 6 310 311 278 286 218 235 222 224 243 257 210 227 248 265 254 257 278 290 292 278 282 268 266 273 277 280 268 254 259 258 267 264 265 257 229 227 221
335 333 330 321 284 271 248 348 329 5 276 229 188 234 200 198 239 237 247 233 246 258 262 270 280 291 293 284 274 272 273 262 260 262 267 273 268 252 250 230 238 237 241 238 231
333 331 327 318 313 287 3 323 348 268 284 155 142 92 220 205 322 202 224 250 253 274 276 272 270 261 272 256 264 275 268 296 302 288 284 256 264 268 277 276 249 214 225 233 229
328 326 329 260 225 260 329 336 272 236 251 155 154 221 217 221 244 261 199 214 259 280 275 273 271 274 276 265 261 263 279 282 285 284 268 263 259 266 265 260 254 202 194 196 195
321 313 306 301 284 348 325 266 244 248 127 233 279 307 259 266 271 247 241 241 241 255 255 264 287 289 275 265 278 247 252 255 247 242 258 261 317 280 258 237 291 148 165 159 175
318 309 223 237 276 322 291 248 252 281 315 15 345 313 292 284 272 267 285 287 253 263 262 273 292 299 349 328 282 274 296 243 255 257 258 242 259 255 328 196 168 163 166 177 180
313 205 224 225 234 284 273 245 250 294 339 340 323 289 284 298 290 258 270 275 300 316 298 292 270 293 180 220 249 264 251 278 278 287 278 269 241 280 278 301 184 174 163 175 176
316 289 263 137 189 262 259 265 290 290 1 319 296 299 298 309 320 311 308 315 320 17 284 301 298 300 318 29 278 198 277 290 215 234 247 260 248 235 270 266 276 183 199 201 184
269 253 108 156 175 246 253 277 310 357 357 308 300 300 300 301 300 298 300 306 12 353 352 310 300 300 345 286 284 211 221 249 302 235 259 285 285 59 328 174 231 212 201 185 210
301 286 133 187 260 236 255 333 317 292 297 288 282 279 280 288 296 301 305 305 34 332 279 191 264 271 282 256 280 303 277 295 173 299 291 258 255 287 205 225 332 262 250 228 226
295 284 156 221 279 323 327 323 322 307 318 304 301 304 310 302 301 295 291 292 309 287 332 4 304 317 323 296 38 22 304 292 320 257 211 240 269 273 51 299 278 264 244 227 235
280 307 356 240 261 261 318 316 311 319 295 294 291 302 292 282 288 301 306 301 217 268 113 133 282 275 275 286 307 206 241 270 193 252 262 259 282 284 153 233 276 292 289 321 308
256 309 5 301 318 323 305 304 304 306 324 317 298 292 295 308 306 298 297 308 321 138 214 232 272 282 285 284 285 292 292 253 259 278 272 267 270 276 284 203 238 231 266 299 277
307 340 341 302 294 298 292 285 312 330 336 313 307 302 302 299 295 303 307 302 297 303 306 275 266 272 281 283 283 280 296 287 278 268 265 268 261 260 265 264 245 230 235 238 263
342 333 295 290 297 309 308 327 316 312 305 288 299 289 288 299 319 310 301 290 284 286 284 291 307 314 282 287 305 274 258 274 292 304 303 300 301 328 328 270 287 340 335 321 286